User: anonymous   Login
Location: Apeadero de Los Molinos-Guadarrama
(40.7091°N, 4.0689°W)
Time: 13:25:27
(UTC+00:00)
Language:

ISS - Orbit

View from above orbital plane
View from above orbital plane
View from above satellite
View from above satellite

Ground track
Ground track

The orbit data is extracted from the following two-line orbital elements,

1 25544U 98067A   21301.23978222  .00003923  00000-0  79846-4 0  9997
2 25544  51.6450  44.8258 0003990 147.3293  66.5615 15.48812559309216
Epoch (UTC): 28 October 2021 05:45:17
Eccentricity: 0.0003990
inclination: 51.6450°
perigee height: 417 km
apogee height: 423 km
right ascension of ascending node: 44.8258°
argument of perigee: 147.3293°
revolutions per day: 15.48812559
mean anomaly at epoch: 66.5615°
orbit number at epoch: 30921

The dashed part of the orbit path shows where the satellite is in the earth's shadow,  

DLR